Location: Newark
(50.4348°N, 30.5552°E)
Time: 05:15:08
(UTC+00:00)

Envisat - Pass Details

Date: 12 December 2019
Orbit: 764 x 766 km, 98.1° (Epoch: 20 January)

Event Time Altitude Azimuth Distance (km) Brightness Sun altitude
Rises 16:22:20 0° 184° (S) 3,221 6.4 -22.4°
Reaches altitude 10° 16:24:44 10° 192° (SSW) 2,300 5.7 -22.8°
Maximum altitude 16:29:32 42° 263° (W) 1,091 4.2 -23.5°
Drops below altitude 10° 16:34:22 10° 334° (NNW) 2,316 5.7 -24.3°
Sets 16:36:49 0° 341° (NNW) 3,247 6.4 -24.7°
